Back to catalog

STARLINK-35897

AliveCommunicationsVLEO
NORAD 66501·PAYLOAD·🇺🇸 United States

Launched Nov 15, 2025 from Cape Canaveral Space Force Station

Loading…

Next Passes (next 24 hours)

TLE

FreshSource: CelesTrak SupGP

Epoch: Sep 14, 2026, 14:28 UTC

1 66501C 25263S   26257.60326389 -.00051112  00000+0 -18517-2 0  2577
2 66501  43.0043   3.8561 0001480 276.9533 323.4251 15.27596830    12

Track STARLINK-35897 in real time with AllMySat

Download on the App Store